TimeICT,TemperatureF,Dew PointF,Humidity,Sea Level PressureIn,VisibilityMPH,Wind Direction,Wind SpeedMPH,Gust SpeedMPH,PrecipitationIn,Events,Conditions,WindDirDegrees,DateUTC
6:00 AM,77.0,66.2,69,29.80,6.2,NNE,5.8,-,N/A,,Scattered Clouds,20,2013-01-05 23:00:00
6:30 AM,77.0,66.2,69,29.80,6.2,North,5.8,-,N/A,,Scattered Clouds,10,2013-01-05 23:30:00
7:00 AM,78,68,63,29.85,6,North,4.5,,,,Overcast,0,2013-01-06 00:00:00
7:00 AM,77.0,66.2,69,29.83,5.6,North,4.6,-,N/A,,Mostly Cloudy,360,2013-01-06 00:00:00
7:30 AM,78.8,66.2,65,29.83,5.6,NNE,5.8,-,N/A,,Mostly Cloudy,20,2013-01-06 00:30:00
8:00 AM,78.8,66.2,65,29.83,5.6,NNE,6.9,-,N/A,,Mostly Cloudy,20,2013-01-06 01:00:00
8:30 AM,80.6,64.4,58,29.86,5.6,NNE,9.2,-,N/A,,Scattered Clouds,20,2013-01-06 01:30:00
9:00 AM,80.6,66.2,61,29.86,6.2,NNE,12.7,-,N/A,,Scattered Clouds,30,2013-01-06 02:00:00
9:30 AM,80.6,66.2,61,29.86,6.2,NNE,11.5,-,N/A,,Scattered Clouds,30,2013-01-06 02:30:00
10:00 AM,82.4,66.2,58,29.86,6.2,NNE,9.2,-,N/A,,Scattered Clouds,30,2013-01-06 03:00:00
10:30 AM,84.2,66.2,55,29.86,6.2,NNE,9.2,-,N/A,,Scattered Clouds,30,2013-01-06 03:30:00
11:00 AM,84.2,66.2,55,29.86,6.2,NNE,10.4,-,N/A,,Scattered Clouds,20,2013-01-06 04:00:00
11:30 AM,84.2,66.2,55,29.83,6.2,NNE,9.2,-,N/A,,Mostly Cloudy,20,2013-01-06 04:30:00
12:00 PM,84.2,66.2,55,29.83,6.2,North,10.4,-,N/A,,Mostly Cloudy,10,2013-01-06 05:00:00
12:30 PM,84.2,66.2,55,29.80,6.2,North,9.2,-,N/A,,Mostly Cloudy,350,2013-01-06 05:30:00
1:00 PM,84.2,68.0,58,29.80,6.2,North,9.2,-,N/A,,Mostly Cloudy,360,2013-01-06 06:00:00
1:30 PM,84.2,66.2,55,29.77,6.2,North,11.5,-,N/A,,Mostly Cloudy,350,2013-01-06 06:30:00
2:00 PM,84.2,66.2,55,29.77,6.2,North,11.5,-,N/A,,Mostly Cloudy,350,2013-01-06 07:00:00
2:30 PM,84.2,66.2,55,29.77,6.2,NNW,11.5,-,N/A,,Mostly Cloudy,340,2013-01-06 07:30:00
3:00 PM,84.2,66.2,55,29.77,6.2,NNW,11.5,-,N/A,,Mostly Cloudy,340,2013-01-06 08:00:00
3:30 PM,86.0,66.2,51,29.74,6.2,North,11.5,-,N/A,,Mostly Cloudy,350,2013-01-06 08:30:00
4:00 PM,84.2,66.2,55,29.74,6.2,North,8.1,-,N/A,,Mostly Cloudy,360,2013-01-06 09:00:00
4:30 PM,84.2,66.2,55,29.74,6.2,North,6.9,-,N/A,,Mostly Cloudy,360,2013-01-06 09:30:00
5:00 PM,84.2,68.0,58,29.77,6.2,North,8.1,-,N/A,,Mostly Cloudy,360,2013-01-06 10:00:00
5:30 PM,82.4,68.0,62,29.77,6.2,North,6.9,-,N/A,,Mostly Cloudy,360,2013-01-06 10:30:00
6:00 PM,82.4,68.0,62,29.77,6.2,North,5.8,-,N/A,,Mostly Cloudy,360,2013-01-06 11:00:00
6:30 PM,82.4,69.8,66,29.77,6.2,North,6.9,-,N/A,,Mostly Cloudy,360,2013-01-06 11:30:00
7:00 PM,82.4,69.8,66,29.80,5.6,NNE,5.8,-,N/A,,Mostly Cloudy,30,2013-01-06 12:00:00
7:30 PM,80.6,68.0,65,29.80,5.6,NNE,6.9,-,N/A,,Mostly Cloudy,30,2013-01-06 12:30:00
8:00 PM,80.6,66.2,61,29.80,5.6,NNE,8.1,-,N/A,,Mostly Cloudy,30,2013-01-06 13:00:00
9:30 PM,80.6,66.2,61,29.80,6.2,North,5.8,-,N/A,,Scattered Clouds,360,2013-01-06 14:30:00
10:00 PM,80.6,68.0,65,29.80,6.2,NNE,8.1,-,N/A,,Scattered Clouds,30,2013-01-06 15:00:00
10:30 PM,78.8,68.0,69,29.80,6.2,NNE,5.8,-,N/A,,Scattered Clouds,20,2013-01-06 15:30:00
11:00 PM,80.6,68.0,65,29.80,6.2,NNE,5.8,-,N/A,,Scattered Clouds,30,2013-01-06 16:00:00
11:30 PM,78.8,68.0,69,29.80,6.2,NNE,5.8,-,N/A,,Scattered Clouds,30,2013-01-06 16:30:00